[[{"header":{"parameterUnit":"m.s-1","parameterCategory":1,"la1":30.2991,"la2":30.254,"lo1":-89.0895,"lo2":-89.0444,"dy":0.0017,"dx":0.0017,"nx":28,"ny":28,"refTime":"2025-06-01T03:00:00:Z","depth":0,"parameterNumber":2,"parameterNumberName":"U-component_of_WINDS"},"data":[0,0,0,0,0,0,0,0,0,0,0,0,0,0,0,0,0,0,0,0,0,0,0,0,0,0,0,0,0,0,0,0,0,0,0,0,0,0,0,0,0,0,0,0,0,0,0,0,0,0,0,0,0,0,0,0,0,0,1.0543,1.0545,0,1.0706,1.0708,1.0709,1.0782,1.0782,1.0781,1.0781,1.0952,1.0956,1.0961,0,0,0,0,0,0,0,0,0,0,0,0,0,1.0299,1.0303,1.0543,1.0545,1.0547,1.0705,1.0708,1.071,1.0782,1.0782,1.0781,1.0781,1.095,1.0956,1.0961,0,0,0,0,0,0,0,0,0,0,0,0,0,1.0427,1.0304,1.0543,1.0602,1.0609,1.0705,1.0708,1.0711,1.0782,1.0782,1.0781,1.0781,1.0948,1.0955,1.0962,1.1013,0,0,1.0984,1.0987,0,0,0,0,0,0,0,0,1.042,1.0436,1.0591,1.0598,1.0606,1.0723,1.0684,1.0812,1.0782,1.0716,1.0781,1.0781,1.0876,1.0889,1.092,1.102,1.1028,1.0984,1.0989,1.0992,1.0994,0,0,0,0,0,0,0,1.0411,1.043,1.0608,1.0594,1.0603,1.0622,1.064,1.0709,1.0796,1.0722,1.0728,1.0746,1.088,1.0913,1.0925,1.103,1.0984,1.0991,1.0995,1.0998,1.118,1.118,0,0,0,0,0,0,1.0392,1.0422,1.0603,1.0613,1.051,1.0626,1.0646,1.0686,1.0796,1.0812,1.0746,1.0748,1.0901,1.0917,1.0931,1.0997,1.0992,1.0998,1.1003,1.1179,1.118,1.118,0,0,0,0,0,0,1.0386,1.0407,1.0596,1.0519,1.0544,1.0631,1.0675,1.0689,1.0723,1.0814,1.083,1.0764,1.0902,1.0921,1.0991,1.1004,1.1002,1.1008,1.1178,1.1179,1.118,1.113,0,0,0,0,0,0,1.0379,1.0405,1.0424,1.0519,1.0548,1.0652,1.0676,1.0693,1.0734,1.0739,1.0835,1.085,1.0903,1.098,1.0998,1.1014,1.1014,1.1178,1.1179,1.118,1.1131,1.1129,1.1127,0,0,0,0,0,1.037,1.0405,1.0425,1.0446,1.0574,1.0653,1.067,1.0729,1.0735,1.0756,1.0814,1.0847,1.1,1.0987,1.1008,1.1026,1.1177,1.1178,1.118,1.1132,1.1129,1.1127,0,0,0,0,0,0,1.0311,1.0418,1.0442,1.0508,1.057,1.0665,1.0693,1.0725,1.0788,1.079,1.0862,1.0883,1.0947,1.0994,1.0978,1.108,1.1091,1.1097,1.1048,1.1046,1.1044,1.1032,1.102,0,0,0,0,0,1.0305,1.036,1.0451,1.05,1.053,1.0606,1.0642,1.0682,1.0751,1.0778,1.0842,1.0908,1.0971,1.1011,1.1074,1.1137,1.116,1.116,1.1158,1.1156,1.1161,1.1197,1.1199,1.1185,1.1184,1.1184,0,0,1.0295,1.036,1.039,1.049,1.0543,1.0599,1.0628,1.0685,1.0727,1.0788,1.0857,1.0906,1.0985,1.1051,1.1084,1.1092,1.1169,1.1158,1.1156,1.1161,1.1199,1.12,1.1201,1.1185,1.1185,1.1185,0,0,1.0305,1.0359,1.0406,1.0458,1.0538,1.0588,1.0599,1.0688,1.0723,1.0793,1.0839,1.0891,1.0998,1.1052,1.1093,1.1121,1.1154,1.114,1.1131,1.1166,1.1167,1.1169,1.1179,1.1182,1.1143,1.1143,1.1143,0,1.0282,1.0366,1.0427,1.0481,1.0524,1.0579,1.0627,1.0675,1.0772,1.0801,1.0808,1.0942,1.0999,1.1079,1.1086,1.1118,1.1133,1.113,1.1162,1.1164,1.1166,1.1177,1.118,1.1141,1.1141,1.1142,1.1142,0,1.0335,1.0392,1.0421,1.0511,1.0557,1.0608,1.0677,1.0716,1.0751,1.08,1.0872,1.0941,1.1019,1.1041,1.1077,1.1126,1.1129,1.1148,1.1161,1.1164,1.1175,1.118,1.1138,1.1139,1.1139,1.114,0,0,1.0313,1.0434,1.0444,1.0485,1.0576,1.0623,1.0676,1.0751,1.0783,1.0848,1.0895,1.0983,1.1001,1.1048,1.1091,1.1121,1.1139,1.1137,1.114,1.1135,1.1198,1.1183,1.1187,1.1161,1.1162,1.1163,1.1191,0,1.0335,1.0433,1.0488,1.0563,1.0617,1.0669,1.0716,1.0778,1.0825,1.0878,1.0931,1.0992,1.1011,1.104,1.1072,1.113,1.1153,1.1128,1.1207,1.1209,1.1186,1.1193,1.1178,1.1201,1.1196,1.1197,1.1197,0,1.0374,1.0436,1.0516,1.06,1.0625,1.0666,1.0738,1.0788,1.0859,1.0891,1.0943,1.0984,1.1044,1.1051,1.1134,1.1116,1.1152,1.1185,1.1187,1.1197,1.1204,1.1203,1.121,1.1213,1.1205,1.1204,1.1204,0,1.0351,1.0454,1.0515,1.0548,1.0648,1.0676,1.0719,1.0789,1.083,1.0894,1.0921,1.0991,1.103,1.1083,1.1143,1.1143,1.1221,1.1233,1.125,1.1248,1.1265,1.1263,1.1277,1.1286,1.1286,1.1286,1.1286,0,1.037,1.0417,1.0505,1.0543,1.0597,1.066,1.0712,1.076,1.0822,1.087,1.092,1.0964,1.104,1.1094,1.1142,1.1203,1.1221,1.1249,1.1261,1.1245,1.1241,1.127,1.127,1.1287,1.1287,1.1286,1.1286,0,1.0353,1.0414,1.0484,1.0572,1.0595,1.0631,1.0707,1.0746,1.0795,1.0856,1.0874,1.0951,1.1017,1.1082,1.1171,1.1203,1.1264,1.128,1.124,1.1247,1.126,1.1258,1.1294,1.1302,1.1304,1.1304,1.1304,0,1.0362,1.0399,1.049,1.0525,1.0567,1.0623,1.0665,1.0728,1.077,1.0852,1.0881,1.0951,1.101,1.1113,1.1178,1.1246,1.1265,1.1272,1.1276,1.1258,1.1266,1.1263,1.1267,1.1271,1.1271,1.127,1.127,0,1.037,1.0398,1.0456,1.0523,1.0571,1.0628,1.0687,1.0713,1.0788,1.0832,1.0899,1.0945,1.1035,1.1103,1.1179,1.1225,1.126,1.1268,1.1276,1.126,1.1235,1.1249,1.1236,1.1268,1.1268,1.1268,1.1268,1.1268,1.0367,1.0402,1.0472,1.0534,1.0584,1.0637,1.0678,1.0731,1.0788,1.0865,1.09,1.0967,1.1037,1.1142,1.1187,1.1242,1.1251,1.1262,1.1265,1.1267,1.1263,1.1226,1.1256,1.1256,1.1256,1.1256,1.1257,0,1.0379,1.0426,1.0482,1.0562,1.061,1.0637,1.0703,1.0743,1.0802,1.0863,1.0919,1.0997,1.1063,1.1132,1.1203,1.1233,1.1251,1.125,1.1249,1.1259,1.1251,1.1238,1.1234,1.1234,1.1234,1.1234,1.1234,1.1234,1.0391,1.0451,1.0487,1.0574,1.0621,1.0687,1.0722,1.0772,1.0821,1.0904,1.0959,1.1003,1.1068,1.1143,1.1206,1.1224,1.1248,1.1242,1.1266,1.1258,1.1259,1.1261,1.1248,1.1247,1.1247,1.1269,1.1269,1.1269]},{"header":{"parameterUnit":"m.s-1","parameterCategory":1,"la1":30.2991,"la2":30.254,"lo1":-89.0895,"lo2":-89.0444,"dy":0.0017,"dx":0.0017,"nx":28,"ny":28,"refTime":"2025-06-01T03:00:00:Z","depth":0,"parameterNumber":3,"parameterNumberName":"V-component_of_WINDS"},"data":[0,0,0,0,0,0,0,0,0,0,0,0,0,0,0,0,0,0,0,0,0,0,0,0,0,0,0,0,0,0,0,0,0,0,0,0,0,0,0,0,0,0,0,0,0,0,0,0,0,0,0,0,0,0,0,0,0,0,2.8869,2.8869,0,2.8852,2.8852,2.8851,2.8804,2.8803,2.8802,2.8801,2.8781,2.8782,2.8782,0,0,0,0,0,0,0,0,0,0,0,0,0,2.8856,2.8857,2.8869,2.8869,2.8869,2.8852,2.8852,2.8851,2.8805,2.8803,2.8802,2.8801,2.8781,2.8782,2.8782,0,0,0,0,0,0,0,0,0,0,0,0,0,2.8853,2.8857,2.8869,2.8843,2.8841,2.8852,2.8852,2.8851,2.8805,2.8803,2.8802,2.88,2.8781,2.8782,2.8782,2.8816,0,0,2.8784,2.8784,0,0,0,0,0,0,0,0,2.8853,2.8853,2.8847,2.8845,2.8842,2.8829,2.884,2.8839,2.8805,2.8818,2.8801,2.88,2.8798,2.8797,2.8797,2.8815,2.8814,2.8784,2.8784,2.8785,2.8785,0,0,0,0,0,0,0,2.8853,2.8854,2.8862,2.8847,2.8844,2.8831,2.8829,2.8839,2.8817,2.8817,2.8814,2.8812,2.8796,2.8797,2.8796,2.8814,2.8784,2.8785,2.8785,2.8785,2.8853,2.8854,0,0,0,0,0,0,2.8858,2.8854,2.8863,2.8862,2.8844,2.8832,2.883,2.8835,2.8817,2.8813,2.8814,2.881,2.8796,2.8796,2.8796,2.883,2.8785,2.8785,2.8786,2.8851,2.8853,2.8855,0,0,0,0,0,0,2.8858,2.8859,2.8863,2.8857,2.8856,2.8834,2.884,2.8835,2.8835,2.8814,2.8809,2.8819,2.8795,2.8795,2.881,2.8829,2.8786,2.8786,2.885,2.8852,2.8854,2.8901,0,0,0,0,0,0,2.8857,2.8859,2.8873,2.8858,2.8857,2.888,2.8841,2.8836,2.8837,2.8832,2.8817,2.8813,2.8794,2.8809,2.8811,2.8829,2.8787,2.8848,2.8851,2.8853,2.8898,2.8905,2.8911,0,0,0,0,0,2.8857,2.8888,2.8874,2.8876,2.8874,2.8881,2.8881,2.8859,2.8839,2.8851,2.8837,2.8814,2.8827,2.8812,2.8813,2.8831,2.8846,2.885,2.8853,2.8895,2.8903,2.8911,0,0,0,0,0,0,2.8906,2.8886,2.887,2.8897,2.8891,2.8873,2.8889,2.8869,2.8868,2.8864,2.8836,2.8833,2.8851,2.8843,2.8826,2.886,2.8833,2.8836,2.8864,2.8872,2.8878,2.8879,2.8787,0,0,0,0,0,2.8921,2.8929,2.891,2.8936,2.8933,2.8912,2.8914,2.8897,2.889,2.8887,2.8874,2.8866,2.8868,2.887,2.8871,2.8897,2.8891,2.891,2.8916,2.8922,2.8924,2.8932,2.8939,2.8865,2.8865,2.8865,0,0,2.895,2.8939,2.8946,2.8945,2.8939,2.8946,2.891,2.892,2.8924,2.8888,2.8901,2.8891,2.8881,2.89,2.8908,2.8894,2.8943,2.8926,2.893,2.893,2.8936,2.8943,2.895,2.8867,2.8867,2.8867,0,0,2.9005,2.9,2.9018,2.9012,2.9002,2.8987,2.8992,2.8976,2.8968,2.8981,2.8952,2.8956,2.8961,2.8953,2.895,2.8999,2.8976,2.9001,2.9033,2.9041,2.9047,2.9052,2.9066,2.9071,2.9004,2.9004,2.9004,0,2.9042,2.9053,2.903,2.9041,2.9039,2.9007,2.9023,2.9018,2.9009,2.9008,2.8992,2.8995,2.8986,2.9001,2.9012,2.9013,2.9014,2.9001,2.9048,2.9053,2.9057,2.907,2.9075,2.9006,2.9006,2.9006,2.9006,0,2.9096,2.9104,2.912,2.9111,2.9112,2.9126,2.9102,2.9105,2.9088,2.9074,2.9084,2.9072,2.9068,2.9071,2.9055,2.9082,2.9073,2.9054,2.9025,2.9067,2.9078,2.9083,2.901,2.9009,2.9009,2.9008,0,0,2.9183,2.9159,2.9165,2.9159,2.9144,2.9149,2.916,2.9156,2.9157,2.9151,2.9157,2.9161,2.9141,2.9137,2.912,2.9128,2.9162,2.9106,2.9106,2.9114,2.9187,2.9199,2.9206,2.9148,2.9149,2.9149,2.9186,0,2.9232,2.925,2.9228,2.9249,2.9253,2.9221,2.923,2.9221,2.9207,2.9207,2.9192,2.9193,2.917,2.9167,2.9173,2.9157,2.9176,2.9154,2.915,2.915,2.915,2.9212,2.9226,2.9262,2.9191,2.9192,2.9192,0,2.9292,2.9288,2.9309,2.929,2.9291,2.9299,2.9291,2.9293,2.9281,2.927,2.9265,2.9243,2.9249,2.9223,2.9229,2.9215,2.9212,2.9203,2.9204,2.92,2.9172,2.9207,2.9273,2.9277,2.92,2.9199,2.9199,0,2.9347,2.9347,2.9359,2.9355,2.9334,2.934,2.9331,2.9317,2.9315,2.9308,2.9305,2.93,2.9296,2.929,2.9267,2.9251,2.9274,2.9247,2.9262,2.9263,2.9267,2.9267,2.933,2.9271,2.9271,2.927,2.927,0,2.9402,2.9416,2.9383,2.939,2.9403,2.9377,2.939,2.9377,2.9365,2.9367,2.934,2.9342,2.9312,2.931,2.9292,2.9297,2.9296,2.9286,2.928,2.9286,2.9287,2.9282,2.9278,2.9272,2.9272,2.9271,2.9271,0,2.9465,2.9445,2.9454,2.9433,2.9428,2.9438,2.9418,2.9422,2.9406,2.9409,2.9408,2.9383,2.9379,2.9355,2.9346,2.9334,2.9344,2.9336,2.9349,2.9344,2.9359,2.9357,2.942,2.9425,2.9365,2.9366,2.9366,0,2.95,2.9509,2.9488,2.9488,2.948,2.948,2.9477,2.9451,2.9449,2.9433,2.9438,2.9432,2.9426,2.9421,2.94,2.9392,2.9381,2.9403,2.9379,2.9384,2.9377,2.9375,2.9374,2.9407,2.9408,2.9409,2.9409,0,2.9563,2.9551,2.9549,2.9541,2.9538,2.9531,2.9522,2.9523,2.9494,2.9492,2.9488,2.9483,2.9472,2.9465,2.9453,2.9442,2.942,2.9417,2.942,2.9425,2.9431,2.9424,2.9359,2.9416,2.9415,2.9414,2.9414,2.9414,2.961,2.9615,2.96,2.9597,2.9587,2.9579,2.958,2.9564,2.956,2.955,2.9535,2.9531,2.9515,2.9497,2.9487,2.9483,2.947,2.9475,2.9475,2.9476,2.9478,2.9434,2.9481,2.9481,2.9481,2.948,2.948,0,2.9668,2.9656,2.9653,2.9641,2.9638,2.9618,2.9606,2.9604,2.9602,2.9589,2.9583,2.9576,2.9568,2.9547,2.9537,2.9537,2.9526,2.9535,2.9533,2.953,2.9491,2.9489,2.9543,2.9543,2.9543,2.9543,2.9543,2.9543,2.9697,2.9703,2.969,2.969,2.9678,2.9675,2.9669,2.966,2.9649,2.9643,2.9636,2.9623,2.9605,2.9593,2.9584,2.9578,2.9574,2.9585,2.9575,2.9539,2.9533,2.9527,2.9524,2.9585,2.9585,2.9613,2.9614,2.9614]}]]